KA4JMC Weather Reports


time (UTC)temp
F
wind
direction
speed
knots
gust
knots
rain 1hr
in
rain 24hr
in
rain mn
in
humidity
%
barometer
mb
20260504050517 57 189 0.0 0.0 0.00 0.00 0.00 979.8
20260504045535 57 213 0.0 3.5 0.00 0.00 0.00 978.8
20260504045015 57 206 0.0 0.0 0.00 0.00 0.00 978.8
20260504044514 57 195 2.6 2.6 0.00 0.00 0.00 978.8
20260504044013 57 222 3.5 3.5 0.00 0.00 0.00 978.8
20260504043514 57 211 1.7 0.0 0.00 0.00 0.00 978.8
20260504043014 57 191 1.7 0.0 0.00 0.00 0.00 979.8
20260504042514 57 195 3.5 3.5 0.00 0.00 0.00 979.8
20260504042039 58 234 0.0 0.0 0.00 0.00 0.00 979.8
20260504041514 58 191 0.0 0.0 0.00 0.00 0.00 979.8
20260504041014 58 209 0.0 0.0 0.00 0.00 0.00 979.8
20260504040526 58 216 1.7 1.7 0.00 0.00 0.00 979.8
20260504040014 58 218 0.0 0.0 0.00 0.00 0.00 979.8
20260504035514 58 251 0.0 2.6 0.00 0.00 0.00 979.8
20260504035017 58 195 0.0 0.0 0.00 0.00 0.00 979.8
20260504034513 58 192 0.0 0.0 0.00 0.00 0.00 979.8
20260504034014 58 189 0.0 0.0 0.00 0.00 0.00 979.8
20260504033514 58 224 0.0 0.0 0.00 0.00 0.00 979.8
20260504033019 58 183 2.6 4.3 0.00 0.00 0.00 979.8
20260504032514 58 220 0.0 0.0 0.00 0.00 0.00 979.8
20260504032014 58 192 0.0 0.0 0.00 0.00 0.00 979.8
20260504031514 59 207 0.0 0.0 0.00 0.00 0.00 979.8
20260504031015 59 209 0.0 0.0 0.00 0.00 0.00 979.8
20260504030514 59 192 0.0 0.0 0.00 0.00 0.00 979.8
20260504030021 59 192 0.0 0.0 0.00 0.00 0.00 979.8
20260504025513 59 224 0.0 0.0 0.00 0.00 0.00 979.8
20260504025020 59 196 0.0 0.0 0.00 0.00 0.00 979.8
20260504024534 59 200 0.0 0.0 0.00 0.00 0.00 979.8
20260504024017 59 187 0.0 0.0 0.00 0.00 0.00 979.8
20260504023514 59 198 0.0 0.0 0.00 0.00 0.00 979.8
20260504023027 59 197 0.0 0.0 0.00 0.00 0.00 979.8
20260504022514 59 229 0.0 0.0 0.00 0.00 0.00 979.8
20260504022013 58 204 0.0 0.0 0.00 0.00 0.00 979.8
20260504021515 58 214 0.0 0.0 0.00 0.00 0.00 979.8
20260504021013 58 207 0.0 0.0 0.00 0.00 0.00 979.8
20260504020514 58 213 0.0 0.0 0.00 0.00 0.00 979.8
20260504020024 58 218 2.6 0.0 0.00 0.00 0.00 979.8
20260504015534 58 208 0.0 0.0 0.00 0.00 0.00 979.8
20260504015018 58 208 0.0 0.0 0.00 0.00 0.00 979.8
20260504014514 59 208 0.0 0.0 0.00 0.00 0.00 979.8
20260504014013 59 208 0.0 0.0 0.00 0.00 0.00 979.8
20260504013513 59 208 0.0 0.0 0.00 0.00 0.00 979.8
20260504013014 60 208 0.0 0.0 0.00 0.00 0.00 979.8
20260504012513 60 208 0.0 0.0 0.00 0.00 0.00 979.8
20260504012014 61 208 0.0 0.0 0.00 0.00 0.00 979.8
20260504011513 61 208 0.0 0.0 0.00 0.00 0.00 978.8
20260504011020 61 208 0.0 0.0 0.00 0.00 0.00 978.8
20260504010514 62 208 0.0 0.0 0.00 0.00 0.00 978.8
20260504010014 62 218 0.0 0.0 0.00 0.00 0.00 979.8
20260504005513 62 233 0.0 0.0 0.00 0.00 0.00 979.8
20260504005015 63 243 0.0 0.0 0.00 0.00 0.00 979.8
20260504004513 63 233 0.0 0.0 0.00 0.00 0.00 979.8
20260504004012 63 205 0.0 0.0 0.00 0.00 0.00 979.8
20260504003514 63 232 1.7 6.1 0.00 0.00 0.00 979.8
20260504003022 64 222 2.6 0.0 0.00 0.00 0.00 979.8
20260504002513 64 191 2.6 2.6 0.00 0.00 0.00 979.8
20260504002017 64 239 1.7 1.7 0.00 0.00 0.00 979.8
20260504001514 64 243 3.5 4.3 0.00 0.00 0.00 979.8
20260504001034 64 233 3.5 3.5 0.00 0.00 0.00 979.8
20260504000514 64 335 3.5 3.5 0.00 0.00 0.00 979.8
20260504000039 64 192 3.5 3.5 0.00 0.00 0.00 979.8
20260503235513 65 210 2.6 4.3 0.00 0.00 0.00 979.8
20260503235018 65 259 2.6 4.3 0.00 0.00 0.00 979.8
20260503234513 65 248 2.6 2.6 0.00 0.00 0.00 978.8
20260503234013 65 189 3.5 4.3 0.00 0.00 0.00 978.8
20260503233513 65 213 4.3 3.5 0.00 0.00 0.00 978.8
20260503233037 65 209 3.5 2.6 0.00 0.00 0.00 979.8
20260503232534 65 161 3.5 0.0 0.00 0.00 0.00 979.8
20260503232019 66 230 0.0 3.5 0.00 0.00 0.00 979.8
20260503231515 66 231 5.2 4.3 0.00 0.00 0.00 978.8
20260503231018 66 244 3.5 7.0 0.00 0.00 0.00 978.8
20260503230515 66 210 7.0 5.2 0.00 0.00 0.00 978.8
20260503230020 66 154 0.0 0.0 0.00 0.00 0.00 979.8
20260503225514 66 217 3.5 4.3 0.00 0.00 0.00 979.8
20260503225013 66 241 4.3 5.2 0.00 0.00 0.00 979.8
20260503224534 66 212 6.1 4.3 0.00 0.00 0.00 979.8
20260503224020 66 236 2.6 3.5 0.00 0.00 0.00 979.8
20260503223513 66 216 3.5 8.7 0.00 0.00 0.00 979.8
20260503223037 66 236 5.2 1.7 0.00 0.00 0.00 979.8
20260503222516 66 210 3.5 5.2 0.00 0.00 0.00 979.8
20260503222015 66 229 7.0 7.0 0.00 0.00 0.00 979.8
20260503221514 66 200 5.2 5.2 0.00 0.00 0.00 979.8
20260503221017 66 191 5.2 2.6 0.00 0.00 0.00 979.8
20260503220514 66 236 6.1 3.5 0.00 0.00 0.00 979.8
20260503220018 66 196 5.2 7.0 0.00 0.00 0.00 979.8
20260503215514 66 197 2.6 7.0 0.00 0.00 0.00 979.8
20260503215013 66 209 7.0 7.0 0.00 0.00 0.00 979.8
20260503214514 66 171 3.5 5.2 0.00 0.00 0.00 979.8
20260503214035 66 239 4.3 7.0 0.00 0.00 0.00 979.8
20260503213513 66 12 7.0 4.3 0.00 0.00 0.00 979.8
20260503213027 66 190 6.1 7.0 0.00 0.00 0.00 979.8
20260503212513 66 200 7.0 5.2 0.00 0.00 0.00 979.8
20260503212014 67 221 7.0 6.1 0.00 0.00 0.00 979.8
20260503211534 67 222 5.2 9.6 0.00 0.00 0.00 980.8
20260503211016 66 227 3.5 5.2 0.00 0.00 0.00 980.8
20260503210514 66 220 7.0 7.0 0.00 0.00 0.00 980.8
20260503210014 66 209 8.7 5.2 0.00 0.00 0.00 980.8
20260503205516 67 203 7.0 9.6 0.00 0.00 0.00 980.8
20260503205013 67 208 7.0 8.7 0.00 0.00 0.00 980.8
20260503204535 67 165 7.0 2.6 0.00 0.00 0.00 980.8
20260503204015 67 211 10.4 11.3 0.00 0.00 0.00 980.8
20260503203513 66 220 6.1 7.0 0.00 0.00 0.00 980.8
20260503203013 66 256 5.2 9.6 0.00 0.00 0.00 980.8
20260503202513 66 202 6.1 7.0 0.00 0.00 0.00 980.8
20260503202034 66 203 7.8 8.7 0.00 0.00 0.00 980.8
20260503201514 66 195 5.2 7.0 0.00 0.00 0.00 981.8
20260503201018 67 181 4.3 5.2 0.00 0.00 0.00 981.8
20260503200513 66 140 5.2 5.2 0.00 0.00 0.00 981.8
20260503200034 66 233 3.5 3.5 0.00 0.00 0.00 981.8
20260503195513 65 233 8.7 3.5 0.00 0.00 0.00 981.8
20260503195035 65 256 5.2 4.3 0.00 0.00 0.00 981.8
20260503194525 65 184 6.1 14.8 0.00 0.00 0.00 981.8
20260503194017 64 192 6.1 5.2 0.00 0.00 0.00 981.8
20260503193537 64 222 7.8 6.1 0.00 0.00 0.00 981.8
20260503193023 64 205 7.0 3.5 0.00 0.00 0.00 981.8
20260503192513 64 126 7.8 7.8 0.00 0.00 0.00 981.8
20260503192016 64 198 5.2 5.2 0.00 0.00 0.00 981.8
20260503191516 64 238 5.2 7.0 0.00 0.00 0.00 981.8
20260503191013 64 120 3.5 4.3 0.00 0.00 0.00 981.8
20260503190517 64 199 5.2 5.2 0.00 0.00 0.00 981.8
20260503190024 63 182 6.1 3.5 0.00 0.00 0.00 981.8
20260503185515 63 208 6.1 5.2 0.00 0.00 0.00 981.8
20260503185019 62 220 7.0 2.6 0.00 0.00 0.00 981.8
20260503184513 63 237 7.0 7.0 0.00 0.00 0.00 982.8
20260503184013 62 233 4.3 3.5 0.00 0.00 0.00 982.8
20260503183525 62 158 5.2 4.3 0.00 0.00 0.00 982.8
20260503183013 62 193 5.2 5.2 0.00 0.00 0.00 982.8
20260503182539 62 221 7.0 9.6 0.00 0.00 0.00 982.8
20260503182016 62 240 6.1 7.8 0.00 0.00 0.00 982.8
20260503181521 61 212 6.1 9.6 0.00 0.00 0.00 982.8
20260503181034 60 195 3.5 5.2 0.00 0.00 0.00 982.8
20260503180536 59 220 4.3 2.6 0.00 0.00 0.00 982.8
20260503180014 59 193 5.2 9.6 0.00 0.00 0.00 983.8
20260503175517 59 170 6.1 7.0 0.00 0.00 0.00 983.8
20260503175019 59 177 5.2 5.2 0.00 0.00 0.00 983.8
20260503174513 59 190 5.2 7.0 0.00 0.00 0.00 983.8
20260503174018 60 225 5.2 5.2 0.00 0.00 0.00 983.8
20260503173514 60 182 5.2 2.6 0.00 0.00 0.00 983.8
20260503173027 60 241 5.2 11.3 0.00 0.00 0.00 983.8
20260503172514 59 200 6.1 7.0 0.00 0.00 0.00 983.8
20260503172013 58 218 7.0 5.2 0.00 0.00 0.00 983.8
20260503171520 58 187 5.2 7.0 0.00 0.00 0.00 984.8
20260503171014 57 171 5.2 8.7 0.00 0.00 0.00 984.8
20260503170513 56 233 7.0 9.6 0.00 0.00 0.00 984.8
20260503150514 57 185 4.3 5.2 0.00 0.00 0.00 986.8
20260503131014 52 221 5.2 7.0 0.00 0.00 0.00 986.8
20260503130536 52 258 3.5 2.6 0.00 0.00 0.00 986.8
20260503110523 47 188 3.5 7.0 0.00 0.00 0.00 985.8
20260503081515 45 217 2.6 2.6 0.00 0.00 0.00 987.8
20260503081040 45 240 0.0 0.0 0.00 0.00 0.00 987.8
20260503080525 45 233 1.7 3.5 0.00 0.00 0.00 987.8
20260503072518 44 231 2.6 1.7 0.00 0.00 0.00 987.8
20260503072013 44 226 0.0 0.0 0.00 0.00 0.00 987.8
20260503071515 44 222 0.0 0.0 0.00 0.00 0.00 987.8
20260503071014 43 217 0.0 0.0 0.00 0.00 0.00 987.8
20260503070514 43 221 0.0 0.0 0.00 0.00 0.00 987.8